Weather History for KWRI - June, 2013

Change the Weather History Date:

Sunday, June 9, 2013

  Actual Average Record
Temperature  
Mean Temperature 72 °F -  
Max Temperature 82 °F 75 °F 98 °F (2011)
Min Temperature 62 °F 56 °F 46 °F (1997)
Cooling Degree Days 7    
Growing Degree Days 22 (Base 50)    
Moisture  
Dew Point 60 °F    
Average Humidity 67    
Maximum Humidity 87    
Minimum Humidity 47    
Precipitation  
Precipitation 0.00 in - - ()
Sea Level Pressure  
Sea Level Pressure 30.14 in    
Wind  
Wind Speed 4 mph (SW)    
Max Wind Speed 10 mph    
Max Gust Speed -    
Visibility 10 miles    
Events Rain    
Averages and records for this station are not official NWS values.
T = Trace of Precipitation, MM = Missing Value Source: NWS Daily Summary

Daily Weather History Graph

Daily Weather History Graph

Search for Another Location

Airport or City:

Trip Planner

Search our weather history database for the weather conditions in past years. The results will help you decide how hot, cold, wet, or windy it might be!

Date:

Astronomy

Jun. 09, 2013 Rise Set
Actual Time 5:29 AM EDT 8:26 PM EDT
Civil Twilight 4:56 AM EDT 8:59 PM EDT
Nautical Twilight 4:15 AM EDT 9:40 PM EDT
Astronomical Twilight 3:27 AM EDT 10:28 PM EDT
Moon 6:23 AM EDT (6/9) 9:11 PM EDT (6/9)
Length of Visible Light 16h 02m
Length of Day
14h 57m
New Moon, 1% of the Moon is Illuminated
Jun 9
New Moon
Jun 16
First Quarter
Jun 23
Full
Jun 30
Last Quarter
Jul 8
New

Hourly Weather History & Observations

Time (EDT) Temp. Heat Index Dew Point Humidity Pressure Visibility Wind Dir Wind Speed Gust Speed Precip Events Conditions
12:58 AM 65.3 °F - 59.5 °F 82% 30.08 in 10.0 mi West 4.6 mph - N/A   Clear
1:58 AM 63.9 °F - 59.9 °F 87% 30.09 in 10.0 mi West 3.5 mph - N/A   Clear
2:58 AM 63.9 °F - 59.0 °F 84% 30.10 in 10.0 mi West 3.5 mph - N/A   Clear
3:58 AM 62.6 °F - 58.8 °F 87% 30.10 in 10.0 mi Calm Calm - N/A   Mostly Cloudy
4:58 AM 63.5 °F - 58.5 °F 84% 30.11 in 10.0 mi North 2.3 mph - N/A   Overcast
5:58 AM 63.0 °F - 56.5 °F 79% 30.13 in 10.0 mi Variable 4.6 mph - N/A   Mostly Cloudy
6:12 AM 64.4 °F - 57.2 °F 77% 30.14 in 10.0 mi NW 5.8 mph - N/A Rain Light Rain
6:19 AM 64.4 °F - 57.2 °F 77% 30.14 in 10.0 mi NW 3.5 mph - N/A   Mostly Cloudy
6:58 AM 64.0 °F - 57.9 °F 80% 30.16 in 10.0 mi Calm Calm - 0.00 in   Overcast
7:58 AM 67.6 °F - 58.5 °F 72% 30.17 in 10.0 mi Variable 1.2 mph - N/A   Partly Cloudy
8:58 AM 70.5 °F - 60.4 °F 70% 30.18 in 10.0 mi ENE 3.5 mph - N/A   Clear
9:42 AM 73.4 °F - 60.8 °F 65% 30.17 in 10.0 mi Variable 1.2 mph - N/A Rain Light Rain
9:54 AM 73.4 °F - 60.8 °F 65% 30.17 in 10.0 mi Variable 3.5 mph - N/A   Scattered Clouds
9:58 AM 73.4 °F - 60.8 °F 65% 30.18 in 10.0 mi NE 3.5 mph - 0.00 in   Mostly Cloudy
10:16 AM 75.2 °F - 59.0 °F 57% 30.17 in 10.0 mi Variable 1.2 mph - N/A Rain Light Rain
10:23 AM 73.4 °F - 59.0 °F 61% 30.17 in 10.0 mi Calm Calm - N/A   Scattered Clouds
10:58 AM 75.4 °F - 58.8 °F 56% 30.18 in 10.0 mi Variable 1.2 mph - 0.00 in   Partly Cloudy
11:24 AM 77.0 °F - 59.0 °F 54% 30.17 in 10.0 mi SSE 3.5 mph - N/A Rain Light Rain
11:26 AM 77.0 °F - 57.2 °F 50% 30.17 in 10.0 mi SSE 2.3 mph - N/A   Clear
11:58 AM 78.3 °F - 58.6 °F 51% 30.18 in 10.0 mi Variable 5.8 mph - 0.00 in   Scattered Clouds
12:58 PM 78.3 °F - 59.0 °F 51% 30.16 in 10.0 mi SW 6.9 mph - N/A   Partly Cloudy
1:58 PM 79.7 °F - 58.6 °F 48% 30.15 in 10.0 mi West 10.4 mph - N/A   Partly Cloudy
2:56 PM 80.6 °F 81.1 °F 59.0 °F 48% 30.13 in 10.0 mi WSW 9.2 mph - N/A Rain Light Rain
2:58 PM 80.6 °F 81.1 °F 59.0 °F 48% 30.14 in 10.0 mi WSW 10.4 mph - N/A Rain Light Rain
3:06 PM 80.6 °F 81.1 °F 59.0 °F 48% 30.13 in 10.0 mi SW 6.9 mph - N/A   Clear
3:58 PM 82.2 °F 82.6 °F 59.9 °F 47% 30.12 in 10.0 mi WSW 8.1 mph - 0.00 in   Clear
4:58 PM 81.7 °F 82.2 °F 60.3 °F 48% 30.11 in 10.0 mi West 9.2 mph - N/A   Clear
5:58 PM 81.0 °F 81.7 °F 61.0 °F 50% 30.11 in 10.0 mi SW 8.1 mph - N/A   Clear
6:58 PM 79.7 °F - 62.1 °F 55% 30.12 in 10.0 mi SW 6.9 mph - N/A   Clear
7:58 PM 77.0 °F - 63.3 °F 63% 30.13 in 10.0 mi SSW 2.3 mph - N/A   Clear
8:58 PM 71.4 °F - 64.9 °F 80% 30.14 in 9.0 mi SSW 3.5 mph - N/A   Partly Cloudy
8:59 PM 71.6 °F - 64.4 °F 78% 30.14 in 9.0 mi SSW 3.5 mph - N/A Rain Light Rain
9:00 PM 71.6 °F - 64.4 °F 78% 30.14 in 9.0 mi South 3.5 mph - N/A Rain Light Rain
9:01 PM 71.6 °F - 64.4 °F 78% 30.14 in 10.0 mi SSW 3.5 mph - N/A   Scattered Clouds
9:58 PM 71.1 °F - 64.9 °F 81% 30.16 in 10.0 mi South 5.8 mph - 0.00 in   Mostly Cloudy
10:58 PM 69.8 °F - 64.8 °F 84% 30.16 in 10.0 mi South 6.9 mph - N/A   Partly Cloudy
11:58 PM 68.7 °F - 63.1 °F 82% 30.15 in 10.0 mi SSW 8.1 mph - N/A   Overcast